Location: Newark
(9.4667°S, 159.8167°E)
Time: 04:51:52
(UTC+00:00)

Courier 1B Rocket - Pass Details

Date: 28 November 2019
Orbit: 920 x 1202 km, 28.2° (Epoch: 14 December)

Event Time Altitude Azimuth Distance (km) Brightness Sun altitude
Rises 11:44:19 0° 271° (W) 4,087 8.5 -52.9°
Enters shadow 11:46:08 - 266° (W) 3,537 8.2 -53.2°
Reaches altitude 10° 11:47:31 10° 261° (W) 3,132 - -53.4°
Maximum altitude 11:54:22 32° 200° (SSW) 1,911 - -54.2°
Drops below altitude 10° 12:01:07 10° 139° (SE) 3,077 - -55.1°
Sets 12:04:15 0° 129° (SE) 4,006 - -55.4°
